< Cyclone 198607 1986 Season Cyclone 198609 >
Cyclone 198608 (SELWYN)
General InformationDetailed Track InformationTrack Information on Google MapsList of All Images || ResourceGoogle EarthGE AnimationAtom FeedGeoJSON
Detalied Best Track Wind (Time Zone = UTC)
Year Month Day Hour Lat. Long. Wind (kt) Gust (kt) Direc. of Major Storm Axis Radius of Major Storm Axis (nm) Radius of Minor Storm Axis (nm) Direc. of Major Gale Axis Radius of Major Gale Axis (nm) Radius of Minor Gale Axis (nm) Image
1986 2 21 06 -13.3 114.3 23 -1 symmetric - - symmetric - - Image
1986 2 21 12 -13.9 114.5 25 -1 symmetric - - symmetric - - Image
1986 2 21 18 -14.2 114.8 27 -1 symmetric - - symmetric - - Image
1986 2 22 00 -14.7 114.9 27 -1 symmetric - - symmetric - - Image
1986 2 22 06 -15.3 114.8 31 -1 symmetric - - symmetric - - Image
1986 2 22 12 -15.7 114.3 33 -1 symmetric - - symmetric - - Image
1986 2 22 18 -16.0 113.7 37 -1 symmetric - - symmetric - - Image
1986 2 23 00 -16.6 113.0 43 -1 symmetric - - symmetric - - Image
1986 2 23 06 -17.4 112.4 47 -1 symmetric - - symmetric - - Image
1986 2 23 12 -18.1 111.7 53 -1 symmetric - - symmetric - - Image
1986 2 23 18 -18.8 110.9 60 -1 symmetric - - symmetric - - Image
1986 2 24 00 -19.0 110.0 60 -1 symmetric - - symmetric - - Image
1986 2 24 06 -19.8 108.9 60 -1 symmetric - - symmetric - - Image
1986 2 24 12 -20.6 108.0 54 -1 symmetric - - symmetric - - Image
1986 2 24 18 -21.2 107.3 47 -1 symmetric - - symmetric - - Image
1986 2 25 00 -21.8 106.9 47 -1 symmetric - - symmetric - - Image
1986 2 25 06 -22.4 106.5 39 -1 symmetric - - symmetric - - Image
1986 2 25 12 -22.9 106.2 35 -1 symmetric - - symmetric - - Image
1986 2 25 18 -23.5 106.1 35 -1 symmetric - - symmetric - - Image
1986 2 26 00 -23.9 106.2 31 -1 symmetric - - symmetric - - Image
1986 2 26 06 -24.1 106.3 25 -1 symmetric - - symmetric - - Image
< Cyclone 198607 1986 Season Cyclone 198609 >

Help